Simultaneous Nadir Overpasses (SNOs) Predictions

Prediction of SNOs between GOES-16 and METOP-C Satellite Orbit:

Table of predicted SNOs for the next 14.0 days since TLE Epoch: 4/8/2023
Index Date Time (GOES-16) GOES-16 Lat,Lon METOP-C Lat,Lon Distance(km) Time Diff (sec)
1 04/08/2023 14:44:54 0.06, -75.21 0.72, -78.16 335.82 80
2 04/09/2023 14:21:35 0.06, -75.21 -0.42, -73.17 233.02 80
3 04/11/2023 02:43:14 -0.06, -75.20 -0.65, -77.76 291.85 80
4 04/12/2023 02:19:56 -0.05, -75.20 0.49, -72.77 276.90 80
5 04/13/2023 14:38:49 0.05, -75.21 0.53, -77.34 242.45 80
6 04/14/2023 14:18:11 0.05, -75.22 -0.62, -72.36 326.79 80
7 04/16/2023 02:39:50 -0.05, -75.22 -0.44, -76.95 196.97 80
8 04/17/2023 02:16:32 -0.04, -75.23 0.71, -71.96 372.85 80
9 04/18/2023 14:35:24 0.04, -75.25 0.35, -76.52 144.75 80
10 04/19/2023 14:17:25 0.04, -75.27 -0.81, -71.54 425.69 80
11 04/21/2023 02:36:25 -0.04, -75.28 -0.25, -76.13 96.53 80
12 04/22/2023 02:13:06 -0.04, -75.30 0.91, -71.14 474.03 80
